"TOA5","AWS1","CR1000","7964","CR1000.Std.14","CPU:AWS1_114.CR1","64363","TBL110"
"TIMESTAMP","RECORD","Wind_spd_WVc(1)","Wind_spd_WVc(2)","Air_Temp_Avg","Humidity_Avg","SW_upper_Wm2_Avg","Rain_Tot","Press_Avg","Issui_Tot","Depth_cm","SR50A_Raw","Quality","Ground_Temp_Avg(1)","Ground_Temp_Avg(2)","SW_lower_Wm2_Avg","Albedo_Avg","SWC_per(1)","SWC_per(2)","Period(1)","Period(2)"
"TS","RN","","","","","","","","","","","","","","","","","","",""
"","","WVc","WVc","Avg","Avg","Avg","Tot","Avg","Tot","Smp","Smp","Smp","Avg","Avg","Avg","Avg","Smp","Smp","Smp","Smp"
"2016-01-05 00:00:00",216637,0.233,194.3,-0.711,73.06,0,0,864.9595,0,0.993,3.175,192,1.644,2.488,0,0,50.61,58.32,33.45,35.29
"2016-01-05 00:10:00",216638,0.441,188.5,-0.882,74.34,0,0,864.6793,0,1.194,3.175,192,1.668,2.45,0,0,50.66,58.32,33.46,35.29
"2016-01-05 00:20:00",216639,0.353,185.4,-0.743,74.05,0,0,864.5486,0,1.267,3.173,190,1.666,2.451,0.01895418,0,50.61,58.32,33.45,35.29
"2016-01-05 00:30:00",216640,0.661,181,-1.011,74.87,0,0,864.6688,0,1.036,3.176,192,1.674,2.455,0,0,50.61,58.32,33.45,35.29
"2016-01-05 00:40:00",216641,0.56,184.2,-0.805,73.75,0,0,864.7172,0,1.182,3.174,190,1.691,2.466,0.04928444,0,50.61,58.32,33.45,35.29
"2016-01-05 00:50:00",216642,0.268,269.3,-0.733,73.39,0,0,864.9047,0,1.203,3.171,191,1.688,2.471,0.03412056,0,50.61,58.32,33.45,35.29
"2016-01-05 01:00:00",216643,0.453,254.7,-0.56,71.24,0,0,864.983,0,1.251,3.171,190,1.68,2.473,0.06445015,0,50.61,58.32,33.45,35.29
"2016-01-05 01:10:00",216644,0.656,178.2,-1.027,73.93,0,0,865.1522,0,1.322,3.174,192,1.701,2.482,0,0,50.61,58.32,33.45,35.29
"2016-01-05 01:20:00",216645,0.795,192.4,-0.952,72.7,0,0,865.2007,0,1.193,3.173,192,1.718,2.489,0.01137427,0,50.66,58.32,33.46,35.29
"2016-01-05 01:30:00",216646,0.536,232.6,-0.869,71.86,0,0,865.3163,0,0.944,3.177,192,1.707,2.492,0,0,50.61,58.32,33.45,35.29
"2016-01-05 01:40:00",216647,0.368,297.9,-0.972,71.12,0,0,865.512,0,0.792,3.176,191,1.718,2.493,0.03412332,0,50.61,58.32,33.45,35.29
"2016-01-05 01:50:00",216648,0.343,267.5,-0.741,68.57,0,0,865.511,0,1.367,3.171,192,1.694,2.494,0.03791481,0,50.61,58.32,33.45,35.29
"2016-01-05 02:00:00",216649,0.772,212.2,-0.908,68.92,0,0,865.5076,0,1.141,3.175,192,1.695,2.495,0.003791483,0,50.66,58.32,33.46,35.29
"2016-01-05 02:10:00",216650,0.758,193.9,-1.048,69.36,0,0,865.4485,0,0.939,3.177,192,1.701,2.5,0,0,50.61,58.32,33.45,35.29
"2016-01-05 02:20:00",216651,0.511,190.4,-1.133,69.32,0,0,865.4883,0,0.86,3.179,192,1.705,2.506,0,0,50.61,58.32,33.45,35.29
"2016-01-05 02:30:00",216652,0.721,194.7,-1.191,69.72,0,0,865.5292,0,1.026,3.177,190,1.704,2.519,0,0,50.61,58.32,33.45,35.29
"2016-01-05 02:40:00",216653,0.915,211.4,-0.941,67.11,0,0,865.5353,0,1.296,3.172,191,1.711,2.529,0.00379201,0,50.61,58.32,33.45,35.29
"2016-01-05 02:50:00",216654,1.097,168.2,-0.928,66.46,0,0,865.5265,0,1.02,3.176,190,1.714,2.532,0,0,50.61,58.32,33.45,35.29
"2016-01-05 03:00:00",216655,1.373,169.4,-1.038,67.2,0,0,865.2388,0,1.22,3.174,191,1.743,2.533,0,0,50.61,58.32,33.45,35.29
"2016-01-05 03:10:00",216656,0.917,177.2,-1.017,66.49,0,0,865.1808,0,1.145,3.174,192,1.73,2.534,0,0,50.61,58.32,33.45,35.29
"2016-01-05 03:20:00",216657,0.607,168.9,-1.214,67.32,0,0,865.0984,0,1.294,3.174,191,1.729,2.534,0,0,50.61,58.32,33.45,35.29
"2016-01-05 03:30:00",216658,0.618,197.4,-1.102,65.71,0,0,865.0836,0,0.969,3.177,191,1.719,2.536,0,0,50.61,58.32,33.45,35.29
"2016-01-05 03:40:00",216659,0.597,180.4,-1.513,68.14,0,0,86
"2016-01-05 03:40:00",216659,0.597,180.4,-1.513,68.14,0,0,865.0846,0,0.994,3.178,190,1.717,2.538,0,0,50.61,58.32,33.45,35.29
"2016-01-05 03:50:00",216660,0.638,182.7,-1.42,66.22,0,0,865.0545,0,1.243,3.176,192,1.717,2.538,0,0,50.61,58.32,33.45,35.29
"2016-01-05 04:00:00",216661,0.825,188.4,-1.462,65.79,0,0,865.0513,0,1.244,3.175,190,1.717,2.538,0,0,50.61,58.32,33.45,35.29
"2016-01-05 04:10:00",216662,0.749,193.5,-1.318,64.24,0,0,865.0546,0,1.194,3.176,192,1.717,2.538,0,0,50.66,58.32,33.46,35.29
"2016-01-05 04:20:00",216663,0.982,176.1,-1.48,65.3,0,0,865.0596,0,1.12,3.177,192,1.717,2.538,0,0,50.66,58.32,33.46,35.29
"2016-01-05 04:30:00",216664,0.624,222.4,-1.295,63.84,0,0,865.0966,0,0.819,3.179,190,1.715,2.537,0,0,50.61,58.32,33.45,35.29
"2016-01-05 04:40:00",216665,0.619,187.2,-1.513,65.32,0,0,865.1728,0,1.145,3.177,190,1.717,2.538,0,0,50.61,58.32,33.45,35.29
"2016-01-05 04:50:00",216666,0.65,176.8,-1.445,64.74,0,0,865.2297,0,0.77,3.181,192,1.714,2.538,0,0,50.61,58.32,33.45,35.29
"2016-01-05 05:00:00",216667,0.534,173.2,-1.717,65.88,0,0,865.2718,0,0.997,3.18,190,1.684,2.538,0,0,50.61,58.32,33.45,35.29
"2016-01-05 05:10:00",216668,0.853,180.8,-1.64,65,0,0,865.2297,0,0.946,3.18,192,1.661,2.538,0,0,50.61,58.32,33.45,35.29
"2016-01-05 05:20:00",216669,1.26,176.3,-1.683,65.64,0,0,865.1369,0,1.071,3.179,190,1.642,2.538,0,0,50.61,58.32,33.45,35.29
"2016-01-05 05:30:00",216670,1.152,168,-1.515,64.66,0,0,865.4278,0,0.944,3.179,191,1.647,2.538,0.007584261,0,50.61,58.26,33.45,35.28
"2016-01-05 05:40:00",216671,0.799,213,-1.424,64.12,0,0,865.4131,0,1.343,3.174,190,1.65,2.538,0,0,50.61,58.26,33.45,35.28
"2016-01-05 05:50:00",216672,0.891,206.4,-1.199,62.68,0,0,865.5206,0,1.293,3.174,192,1.643,2.538,0.01137639,0,50.61,58.32,33.45,35.29
"2016-01-05 06:00:00",216673,0.771,246.3,-1.313,63.68,0,0,865.5775,0,1.243,3.175,192,1.641,2.538,0,0,50.61,58.26,33.45,35.28
"2016-01-05 06:10:00",216674,0.558,237.4,-1.098,63.01,0,0,865.6554,0,0.968,3.177,190,1.634,2.538,0.01516852,0,50.61,58.26,33.45,35.28
"2016-01-05 06:20:00",216675,0.527,199.3,-1.263,64.02,0,0,865.6891,0,1.144,3.176,191,1.633,2.537,0,0,50.61,58.26,33.45,35.28
"2016-01-05 06:30:00",216676,0.665,176.6,-1.21,64.03,0,0,865.8261,0,1.418,3.173,190,1.638,2.538,0.007584261,0,50.61,58.26,33.45,35.28
"2016-01-05 06:40:00",216677,0.628,242.3,-1.25,64.57,0,0,865.7418,0,1.293,3.174,192,1.644,2.538,0,0,50.55,58.26,33.43,35.28
"2016-01-05 06:50:00",216678,0.69,198.9,-1.234,65.04,0,0,865.9399,0,1.144,3.176,192,1.652,2.538,0.01516852,0,50.61,58.26,33.45,35.28
"2016-01-05 07:00:00",216679,0.42,211.4,-1.143,64.93,0,0,866.0622,0,1.417,3.173,190,1.665,2.538,0.580196,0,50.61,58.26,33.45,35.28
"2016-01-05 07:10:00",216680,0.65,157.8,-1.489,66.78,0.762996,0,866.0727,0,1.17,3.178,191,1.669,2.538,1.801262,2.341,50.61,58.26,33.45,35.28
"2016-01-05 07:20:00",216681,0.564,236.2,-1.376,67,5.494358,0,866.0264,0,0.643,3.179,191,1.659,2.538,4.497467,0.827,50.61,58.26,33.45,35.28
"2016-01-05 07:30:00",216682,0.789,163.4,-1.131,65.29,12.11748,0,866.0579,0,1.516,3.17,192,1.673,2.538,7.504626,0.622,50.61,58.26,33.45,35.28
"2016-01-05 07:40:00",216683,0.277,157.2,-0.74,63.2,18.22931,0,866.0727,0,1.216,3.171,191,1.666,2.538,10.73931,0.59,50.61,58.26,33.45,35.28
"2016-01-05 07:50:00",216684,0.833,71.63,-0.295,61.01,29.50513,0,866.0727,0,1.24,3.169,192,1.652,2.527,16.33271,0.554,50.61,58.26,33.45,35.28
"2016-01-05 08:00:00",216685,0.785,59.27,-0.18,60.83,38.76334,0,866.0727,0,1.115,3.17,191,1.635,2.533,20.5268,0.531,50.61,58.26,33.45,35.28
"2016-01-05 08:10:00",216686,0.602,88.9,-0.226,61.32,45.64997,0,866.0727,0,1.115,3.17,191,1.635,2.576,23.98143,0.525,50.61,58.26,33.45,35.28
"2016-01-05 08:20:00",216687,0.634,47.81,-0.075,60.8,50.76282,0,866.0594,0,1.14,3.168,192,1.639,2.582,28.8581,0.567,50.55,58.26,33.43,35.28
"2016-01-05 08:30:00",216688,0.557,44.99,0.086,60.03,44.52313,0,865.8818,0,1.277,3.167,190,1.627,2.571,29.92234,0.668,50.61,58.26,33.45,35.28
"2016-01-05 08:40:00",216689,0.337,27.86,0.194,59.74,63.98905,0,865.8,0,1.267,3.165,190,1.599,2.546,43.86535,0.705,50.61,58.26,33.45,35.28
"2016-01-05 08:50:00",216690,0.632,148.5,0.576,60.17,54.37223,0,865.8796,0,1.08,3.166,191,1.569,2.541,43.55757,0.798,50.55,58.26,33.43,35.28
"2016-01-05 09:00:00",216691,0.444,68.31,0.446,59.44,59.18903,0,865.9844,0,1.237,3.165,192,1.557,2.508,44.29011,0.745,50.61,58.26,33.45,35.28
"2016-01-05 09:10:00",216692,0.65,149.9,0.933,60.42,103.6272,0,866.1887,0,1.04,3.162,192,1.553,2.499,75.24147,0.741,50.61,58.26,33.45,35.28
"2016-01-05 09:20:00",216693,0.679,76.71,1.339,59.71,127.228,0,866.2766,0,1.066,3.162,191,1.585,2.533,83.50113,0.66,50.66,58.26,33.46,35.28
"2016-01-05 09:30:00",216694,0.219,260.5,1.228,60.74,81.56172,0,866.3102,0,1.191,3.161,192,1.583,2.523,60.30092,0.74,50.61,58.26,33.45,35.28
"2016-01-05 09:40:00",216695,0.656,152.5,1.335,60.95,102.9065,0,866.2364,0,0.992,3.16,192,1.567,2.505,65.62321,0.66,50.61,58.26,33.45,35.28
"2016-01-05 09:50:00",216696,0.859,148.5,1.589,60.55,126.2486,0,866.2575,0,1.216,3.16,192,1.555,2.5,67.72334,0.595,50.61,58.26,33.45,35.28
"2016-01-05 10:00:00",216697,0.943,144,1.6,61.54,173.1136,0,866.2048,0,1.141,3.16,192,1.544,2.495,86.38942,0.575,50.61,58.26,33.45,35.28
"2016-01-05 10:10:00",216698,0.733,112.9,1.675,61.77,130.2903,0,866.2385,0,1.243,3.157,190,1.543,2.494,97.56481,0.751,50.61,58.26,33.45,35.28
"2016-01-05 10:20:00",216699,0.997,126.6,1.918,61.35,94.05244,0,866.2343,0,1.194,3.156,192,1.543,2.494,76.07076,0.804,50.61,58.26,33.45,35.28
"2016-01-05 10:30:00",216700,0.684,116.8,1.971,61.05,94.84563,0,866.2186,0,1.601,3.151,190,1.541,2.492,74.6711,0.78,50.61,58.26,33.45,35.28
"2016-01-05 10:40:00",216701,0.408,285.6,1.934,59.8,133.164,0,866.173,0,1.399,3.156,192,1.535,2.486,85.9583,0.641,50.61,58.26,33.45,35.28
"2016-01-05 10:50:00",216702,0.382,321.8,1.829,59.62,165.3995,0,866.1856,0,1.202,3.158,189,1.531,2.482,90.63474,0.582,50.61,58.26,33.45,35.28
"2016-01-05 11:00:00",216703,0.368,10.52,1.95,58.47,218.1529,0,866.1414,0,1.472,3.153,190,1.513,2.464,114.4209,0.557,50.66,58.26,33.46,35.28
"2016-01-05 11:10:00",216704,0.46,13.95,2.024,58.02,160.5396,0,866.0888,0,1.234,3.156,191,1.485,2.436,84.36517,0.523,50.61,58.26,33.45,35.28
"2016-01-05 11:20:00",216705,0.295,53.57,2.211,57.29,169.1321,0,865.9451,0,1.444,3.152,190,1.467,2.422,108.0639,0.625,50.61,58.26,33.45,35.28
"2016-01-05 11:30:00",216706,0.817,3.113,2.2,56.46,150.8823,0,865.6985,0,1.042,3.159,192,1.461,2.423,87.73328,0.556,50.61,58.26,33.45,35.28
"2016-01-05 11:40:00",216707,0.222,310.5,1.88,58.25,199.1288,0,865.5237,0,1.095,3.157,191,1.456,2.415,87.36074,0.46,50.61,58.26,33.45,35.28
"2016-01-05 11:50:00",216708,0.633,288.8,2.174,58.11,256.145,0,865.3848,0,1.244,3.157,190,1.47,2.457,108.87,0.455,50.61,58.26,33.45,35.28
"2016-01-05 12:00:00",216709,1.1,312.3,1.702,60.74,110.4057,0,865.3868,0,1.093,3.16,191,1.46,2.409,61.46263,0.547,50.61,58.26,33.45,35.28
"2016-01-05 12:10:00",216710,0.911,289,1.735,61.35,124.9949,0,865.3974,0,1.169,3.158,190,1.46,2.409,84.31737,0.656,50.55,58.26,33.43,35.28
"2016-01-05 12:20:00",216711,0.558,287.4,1.793,61.98,289.8233,0,865.33,0,0.944,3.159,192,1.454,2.405,112.4737,0.44,50.61,58.26,33.45,35.28
"2016-01-05 12:30:00",216712,0.484,285.2,2.361,59.53,480.399,0,865.3362,0,1.021,3.156,190,1.484,2.434,160.0704,0.336,50.61,58.26,33.45,35.28
"2016-01-05 12:40:00",216713,0.498,272,2.468,59.86,315.986,0,865.1361,0,1.201,3.154,191,1.537,2.536,129.4427,0.415,50.61,58.26,33.45,35.28
"2016-01-05 12:50:00",216714,0.817,276.7,2.666,59.12,373.9258,0,865.0737,0,1.166,3.153,191,1.521,2.491,168.2993,0.45,50.61,58.26,33.45,35.28
"2016-01-05 13:00:00",216715,0.557,305.3,2.971,58.23,347.3873,0,864.8177,0,1.141,3.151,189,1.49,2.442,144.411,0.423,50.61,58.26,33.45,35.28
"2016-01-05 13:10:00",216716,0.742,288.9,2.882,58.76,188.5886,0,864.7813,0,1.046,3.154,191,1.466,2.417,87.68032,0.469,50.61,58.26,33.45,35.28
"2016-01-05 13:20:00",216717,0.51,292.7,2.657,59.75,170.0556,0,864.6874,0,1.199,3.153,192,1.457,2.407,81.61172,0.48,50.55,58.26,33.43,35.28
"2016-01-05 13:30:00",216718,0.382,319.9,2.663,59.25,197.3638,0,864.5825,0,1.203,3.151,190,1.453,2.404,93.99841,0.476,50.55,58.26,33.43,35.28
"2016-01-05 13:40:00",216719,0.425,285.1,2.788,59.09,147.0764,0,864.6451,0,1.251,3.152,191,1.452,2.403,71.4238,0.486,50.55,58.26,33.43,35.28
"2016-01-05 13:50:00",216720,0.308,295.4,2.643,60.11,121.9427,0,864.7672,0,1.301,3.152,191,1.456,2.405,58.83915,0.483,50.61,58.26,33.45,35.28
"2016-01-05 14:00:00",216721,0.395,271.1,2.506,60.25,110.427,0,864.7882,0,1.097,3.157,190,1.48,2.448,54.16443,0.49,50.55,58.26,33.43,35.28
"2016-01-05 14:10:00",216722,0.394,265.6,2.185,59.35,98.38475,0,864.7967,0,1.399,3.153,192,1.468,2.467,48.63737,0.494,50.61,58.26,33.45,35.28
"2016-01-05 14:20:00",216723,0.193,208.2,2.343,60.21,91.61518,0,864.8135,0,1.298,3.154,190,1.444,2.41,44.20132,0.481,50.55,58.26,33.43,35.28
"2016-01-05 14:30:00",216724,0.381,308.6,2.344,58.69,97.91328,0,864.8376,0,1.2,3.154,191,1.444,2.359,48.17141,0.491,50.55,58.26,33.43,35.28
"2016-01-05 14:40:00",216725,0.926,262.8,2.18,56.71,100.6125,0,864.7802,0,1.172,3.156,190,1.439,2.323,49.27005,0.49,50.55,58.26,33.43,35.28
"2016-01-05 14:50:00",216726,0.552,264.7,2.137,57.96,107.3226,0,864.8401,0,1.165,3.156,192,1.397,2.324,52.63187,0.49,50.61,58.26,33.45,35.28
"2016-01-05 15:00:00",216727,0.269,305.1,2.18,55.99,86.52381,0,864.8541,0,1.188,3.155,190,1.379,2.33,41.53276,0.479,50.55,58.26,33.43,35.28
"2016-01-05 15:10:00",216728,0.412,5.051,2.127,57.65,52.09277,0,864.8851,0,1.169,3.156,191,1.4,2.35,24.47906,0.47,50.55,58.26,33.43,35.28
"2016-01-05 15:20:00",216729,0.935,12.28,1.917,56.89,35.36475,0,864.8896,0,1.232,3.157,189,1.426,2.376,17.20643,0.486,50.55,58.26,33.43,35.28
"2016-01-05 15:30:00",216730,0.501,310.7,1.743,59.37,37.85055,0,864.9039,0,1.198,3.159,192,1.441,2.392,19.04901,0.502,50.61,58.26,33.45,35.28
"2016-01-05 15:40:00",216731,0.454,25.54,1.55,62.29,21.76547,0,865.0538,0,1.296,3.158,189,1.461,2.423,10.72418,0.491,50.55,58.21,33.43,35.26
"2016-01-05 15:50:00",216732,0.854,273.4,1.39,62.75,19.94608,0,865.2034,0,1.243,3.16,192,1.508,2.448,10.20518,0.511,50.61,58.26,33.45,35.28
"2016-01-05 16:00:00",216733,0.632,292.4,1.273,63.02,14.72282,0,865.3593,0,1.293,3.16,192,1.531,2.482,7.628335,0.518,50.61,58.26,33.45,35.28
"2016-01-05 16:10:00",216734,1.24,315.1,1.132,64.03,8.575876,0,865.511,0,1.243,3.161,191,1.536,2.487,4.547448,0.535,50.55,58.21,33.43,35.26
"2016-01-05 16:20:00",216735,1.101,320.4,0.956,65.17,6.386711,0,865.6858,0,1.243,3.162,189,1.537,2.482,3.539431,0.554,50.61,58.26,33.45,35.28
"2016-01-05 16:30:00",216736,0.751,343.3,0.835,66.41,6.060497,0,865.6268,0,1.217,3.163,191,1.507,2.447,3.391639,0.561,50.61,58.26,33.45,35.28
"2016-01-05 16:40:00",216737,1.251,310.7,0.686,67.39,6.705063,0,865.4962,0,1.242,3.164,190,1.488,2.428,3.641749,0.545,50.55,58.26,33.43,35.28
"2016-01-05 16:50:00",216738,0.798,324.7,0.545,68.22,2.21668,0,865.4815,0,1.341,3.164,192,1.449,2.38,1.618134,0.901,50.61,58.21,33.45,35.26
"2016-01-05 17:00:00",216739,1.287,329.2,0.402,68.77,0,0,865.6374,0,1.236,3.166,190,1.454,2.388,0.2576903,0,50.55,58.26,33.43,35.28
"2016-01-05 17:10:00",216740,0.95,322.7,0.268,70.13,0,0,865.8058,0,1.273,3.166,193,1.447,2.39,0,0,50.55,58.21,33.43,35.26
"2016-01-05 17:20:00",216741,0.596,282.8,0.234,71.73,0,0,866.0152,0,1.264,3.166,190,1.443,2.432,0,0,50.55,58.26,33.43,35.28
"2016-01-05 17:30:00",216742,0.405,239.7,0.215,72.91,0,0,866.2209,0,1.201,3.167,190,1.436,2.464,0,0,50.55,58.26,33.43,35.28
"2016-01-05 17:40:00",216743,0.748,217.8,0.076,74.74,0,0,865.91,0,1.294,3.167,189,1.465,2.481,0,0,50.61,58.21,33.45,35.26
"2016-01-05 17:50:00",216744,0.528,271.5,-0.016,75.66,0,0,865.9299,0,1.217,3.168,191,1.473,2.488,0,0,50.55,58.26,33.43,35.28
"2016-01-05 18:00:00",216745,0.914,15.49,-0.024,75.08,0,0,866.2767,0,1.316,3.167,191,1.47,2.491,0.02274492,0,50.61,58.21,33.45,35.26
"2016-01-05 18:10:00",216746,0.67,296.8,-0.026,75.97,0,0,866.3623,0,1.29,3.168,192,1.468,2.489,0,0,50.55,58.26,33.43,35.28
"2016-01-05 18:20:00",216747,0.564,331.3,-0.13,75.83,0,0,866.0382,0,1.29,3.168,190,1.466,2.475,0,0,50.55,58.21,33.43,35.26
"2016-01-05 18:30:00",216748,0.304,289,-0.209,76.57,0,0,866.1014,0,1.216,3.169,192,1.468,2.464,0.02274502,0,50.61,58.21,33.45,35.26
"2016-01-05 18:40:00",216749,0.472,285.5,-0.252,77.16,0,0,865.9814,0,1.266,3.169,192,1.467,2.427,0.1402609,0,50.55,58.21,33.43,35.26
"2016-01-05 18:50:00",216750,0.328,70.08,-0.272,78.25,0,0,866.0046,0,1.291,3.169,191,1.461,2.432,0.2274502,0,50.55,58.21,33.43,35.26
"2016-01-05 19:00:00",216751,0.698,310.4,-0.319,78.62,0,0,866.1668,0,1.266,3.169,189,1.468,2.408,0.2881036,0,50.55,58.21,33.43,35.26
"2016-01-05 19:10:00",216752,0.391,291.2,-0.3,79.81,0,0,865.9772,0,1.316,3.169,192,1.467,2.407,0.2274502,0,50.55,58.21,33.43,35.26
"2016-01-05 19:20:00",216753,0.492,71.11,-0.36,79.77,0,0,866.2005,0,1.191,3.17,190,1.467,2.41,0.2274502,0,50.55,58.21,33.43,35.26
"2016-01-05 19:30:00",216754,0.439,50.66,-0.407,81.2,0,0,866.2511,0,1.191,3.17,192,1.464,2.407,0.2274502,0,50.55,58.21,33.43,35.26
"2016-01-05 19:40:00",216755,0.269,294.6,-0.376,81.6,0,0,866.2637,0,1.191,3.17,192,1.476,2.408,0.2274502,0,50.55,58.26,33.43,35.28
"2016-01-05 19:50:00",216756,0.258,40.21,-0.383,81.8,0,0,866.2258,0,1.191,3.17,190,1.485,2.414,0.2274502,0,50.61,58.21,33.45,35.26
"2016-01-05 20:00:00",216757,0.231,5.276,-0.335,81.4,0,0,866.4301,0,1.166,3.17,189,1.495,2.418,0.2274502,0,50.55,58.21,33.43,35.26
"2016-01-05 20:10:00",216758,0.144,285.4,-0.307,80.8,0,0,866.4933,0,1.241,3.169,192,1.511,2.419,0.2160777,0,50.55,58.21,33.43,35.26
"2016-01-05 20:20:00",216759,0.189,269,-0.303,81.1,0,0,866.5861,0,1.166,3.17,190,1.528,2.424,0.1554243,0,50.55,58.21,33.43,35.26
"2016-01-05 20:30:00",216760,0.255,60.02,-0.357,81.4,0,0,866.5102,0,1.216,3.17,192,1.546,2.441,0.0416992,0,50.55,58.21,33.43,35.26
"2016-01-05 20:40:00",216761,0.283,325.2,-0.418,82.2,0,0,866.4871,0,1.291,3.17,189,1.554,2.435,0,0,50.55,58.21,33.43,35.26
"2016-01-05 20:50:00",216762,0.546,196,-0.58,83.9,0,0,866.4933,0,1.241,3.171,192,1.556,2.436,0,0,50.55,58.21,33.43,35.26
"2016-01-05 21:00:00",216763,0.146,315.5,-0.663,85.8,0,0,866.4871,0,1.292,3.171,190,1.55,2.429,0,0,50.55,58.21,33.43,35.26
"2016-01-05 21:10:00",216764,0.51,347.6,-0.731,87.5,0,0,866.4871,0,1.391,3.171,192,1.552,2.441,0.08718923,0,50.55,58.21,33.43,35.26
"2016-01-05 21:20:00",216765,0.237,263.1,-0.73,88.3,0,0,866.4871,0,1.317,3.171,192,1.539,2.439,0.1592151,0,50.55,58.21,33.43,35.26
"2016-01-05 21:30:00",216766,0.36,272.7,-0.7,88,0,0,866.6155,0,1.341,3.171,192,1.548,2.441,0.2274502,0,50.55,58.21,33.43,35.26
"2016-01-05 21:40:00",216767,0.416,295.8,-0.715,88,0,0,866.5039,0,1.317,3.171,192,1.542,2.431,0.2236593,0,50.55,58.21,33.43,35.26
"2016-01-05 21:50:00",216768,0.356,281.1,-0.706,88.5,0,0,866.4871,0,1.267,3.172,190,1.547,2.446,0.2122868,0,50.55,58.21,33.43,35.26
"2016-01-05 22:00:00",216769,0.775,323.7,-0.897,90.8,0,0,866.5566,0,1.293,3.173,191,1.556,2.449,0.007581673,0,50.55,58.21,33.43,35.26
"2016-01-05 22:10:00",216770,1.06,285,-1.026,91.9,0,0,866.4933,0,1.293,3.173,189,1.545,2.449,0.007581673,0,50.61,58.21,33.45,35.26
"2016-01-05 22:20:00",216771,0.402,170.8,-0.974,92.2,0,0,866.4828,0,1.268,3.173,190,1.544,2.451,0.1402609,0,50.55,58.21,33.43,35.26
"2016-01-05 22:30:00",216772,0.478,174,-0.988,92.6,0,0,866.546,0,1.293,3.173,190,1.546,2.449,0.208496,0,50.55,58.21,33.43,35.26
"2016-01-05 22:40:00",216773,0.208,178.8,-0.946,93.5,0,0,866.6703,0,1.293,3.172,192,1.545,2.449,0.2198685,0,50.55,58.21,33.43,35.26
"2016-01-05 22:50:00",216774,0.185,331.3,-0.934,91.3,0,0,866.9105,0,1.218,3.174,192,1.543,2.449,0.1971235,0,50.5,58.21,33.42,35.26
"2016-01-05 23:00:00",216775,0.183,292.3,-1.039,91.3,0,0,866.921,0,1.293,3.173,189,1.546,2.449,0.1023526,0,50.55,58.21,33.43,35.26
"2016-01-05 23:10:00",216776,0.234,208.1,-1.051,90.4,0,0,866.7441,0,1.218,3.174,192,1.548,2.449,0.1592151,0,50.55,58.21,33.43,35.26
"2016-01-05 23:20:00",216777,0.512,189.6,-1.145,91.1,0,0,866.6703,0,1.244,3.175,190,1.549,2.449,0,0,50.55,58.21,33.43,35.26
"2016-01-05 23:30:00",216778,0.565,188.7,-1.348,93.6,0,0,866.5228,0,1.22,3.176,192,1.554,2.449,0,0,50.55,58.21,33.43,35.26
"2016-01-05 23:40:00",216779,0.51,186.7,-1.425,95.5,0,0,866.4912,0,1.295,3.176,190,1.549,2.449,0,0,50.55,58.21,33.43,35.26
"2016-01-05 23:50:00",216780,0.918,164.3,-1.564,98,0,0,866.506,0,1.271,3.177,192,1.546,2.449,0,0,50.55,58.21,33.43,35.26
